Terug naar catalogus

CZ-6A DEB

ActiefPO
NORAD 61826·DEBRIS·🇨🇳 China

Gelanceerd Aug 6, 2024 vanaf Taiyuan Satellite Launch Center

Loading…

Volgende Passages (komende 24 uur)

TLE

VersSource: Space-Track

Epoch: Sep 14, 2026, 07:12 UTC

1 61826U 24140ACS 26257.30024336  .00000639  00000-0  24360-3 0  9993
2 61826  89.0384 267.2822 0019808 154.9708 205.2453 14.29565406104644

Volg CZ-6A DEB in realtime met AllMySat

Download on the App Store